QPF
0.02 0.02 0.01 0.02 0.01 0.01 0.01 0.00 0.01 0.01 0.01 0.01 0.02 0.02 0.01 0.01 0.00 0.00 0.00 0.00 0.00 0.01 0.02 0.02 0.02 0.03 0.03 0.04 0.05 0.05 0.07 0.07 0.06 0.04 0.03 0.03 0.03 0.02 0.01 0.01 0.01 0.01 0.01
0.03 0.02 0.02 0.02 0.03 0.02 0.02 0.01 0.01 0.02 0.02 0.02 0.02 0.03 0.03 0.02 0.01 0.00 0.00 0.00 0.00 0.01 0.01 0.02 0.03 0.03 0.04 0.04 0.05 0.06 0.07 0.08 0.08 0.07 0.06 0.05 0.05 0.04 0.03 0.02 0.02 0.01 0.01
0.02 0.02 0.02 0.02 0.02 0.03 0.02 0.03 0.03 0.03 0.04 0.04 0.04 0.04 0.04 0.03 0.02 0.01 0.01 0.00 0.01 0.01 0.01 0.01 0.02 0.03 0.03 0.04 0.05 0.06 0.06 0.06 0.07 0.07 0.07 0.06 0.06 0.06 0.05 0.04 0.03 0.03 0.02
0.03 0.02 0.02 0.02 0.01 0.02 0.02 0.03 0.03 0.03 0.03 0.04 0.05 0.05 0.05 0.04 0.03 0.03 0.02 0.01 0.01 0.01 0.01 0.01 0.02 0.02 0.03 0.03 0.04 0.05 0.06 0.06 0.06 0.06 0.05 0.05 0.05 0.05 0.05 0.04 0.03 0.03 0.03
0.05 0.04 0.02 0.02 0.01 0.01 0.02 0.02 0.02 0.03 0.03 0.03 0.03 0.04 0.04 0.04 0.04 0.04 0.03 0.03 0.02 0.02 0.02 0.02 0.02 0.02 0.02 0.02 0.03 0.04 0.06 0.07 0.07 0.07 0.05 0.05 0.05 0.06 0.05 0.05 0.04 0.03 0.03
0.05 0.04 0.03 0.02 0.01 0.01 0.02 0.02 0.03 0.03 0.03 0.03 0.03 0.03 0.03 0.02 0.02 0.02 0.02 0.03 0.03 0.02 0.02 0.03 0.02 0.02 0.02 0.02 0.02 0.03 0.05 0.08 0.08 0.08 0.07 0.06 0.05 0.06 0.07 0.06 0.06 0.05 0.04
0.07 0.07 0.04 0.02 0.01 0.01 0.02 0.03 0.03 0.03 0.03 0.03 0.02 0.01 0.02 0.02 0.01 0.01 0.01 0.02 0.03 0.03 0.03 0.03 0.03 0.03 0.02 0.02 0.02 0.02 0.04 0.07 0.11 0.12 0.09 0.06 0.05 0.05 0.06 0.06 0.06 0.06 0.05
0.06 0.09 0.11 0.08 0.04 0.02 0.02 0.04 0.04 0.04 0.04 0.03 0.02 0.02 0.02 0.02 0.02 0.01 0.01 0.01 0.02 0.03 0.03 0.03 0.03 0.03 0.03 0.02 0.02 0.02 0.03 0.04 0.07 0.12 0.10 0.08 0.07 0.06 0.05 0.06 0.06 0.07 0.07
0.05 0.06 0.08 0.12 0.13 0.11 0.07 0.07 0.08 0.05 0.04 0.04 0.03 0.02 0.01 0.01 0.01 0.01 0.01 0.01 0.01 0.01 0.02 0.02 0.03 0.03 0.03 0.04 0.04 0.03 0.03 0.03 0.05 0.09 0.12 0.09 0.09 0.08 0.06 0.06 0.06 0.08 0.08
0.05 0.06 0.07 0.07 0.08 0.10 0.10 0.11 0.12 0.10 0.07 0.05 0.03 0.03 0.02 0.01 0.02 0.02 0.01 0.01 0.01 0.01 0.01 0.01 0.02 0.02 0.03 0.03 0.04 0.04 0.04 0.04 0.04 0.06 0.12 0.11 0.10 0.11 0.10 0.08 0.07 0.07 0.09
0.05 0.05 0.07 0.08 0.07 0.06 0.07 0.08 0.08 0.09 0.07 0.05 0.03 0.03 0.02 0.01 0.01 0.01 0.01 0.01 0.01 0.01 0.01 0.01 0.01 0.01 0.02 0.02 0.03 0.04 0.03 0.04 0.04 0.04 0.08 0.11 0.11 0.12 0.13 0.14 0.12 0.10 0.10
0.05 0.04 0.04 0.06 0.07 0.06 0.06 0.06 0.07 0.07 0.05 0.03 0.02 0.02 0.02 0.01 0.01 0.01 0.01 0.01 0.01 0.01 0.01 0.01 0.01 0.01 0.01 0.01 0.02 0.03 0.03 0.02 0.02 0.03 0.05 0.08 0.11 0.12 0.14 0.16 0.17 0.15 0.12
0.04 0.04 0.04 0.04 0.06 0.07 0.06 0.06 0.05 0.05 0.05 0.03 0.03 0.02 0.02 0.01 0.01 0.01 0.01 0.01 0.01 0.01 0.01 0.01 0.01 0.01 0.02 0.02 0.02 0.03 0.03 0.03 0.03 0.03 0.04 0.06 0.10 0.12 0.13 0.14 0.14 0.13 0.11
0.03 0.03 0.04 0.03 0.04 0.06 0.09 0.09 0.07 0.06 0.06 0.04 0.04 0.03 0.03 0.02 0.01 0.01 0.01 0.01 0.01 0.01 0.01 0.01 0.01 0.01 0.02 0.02 0.03 0.03 0.03 0.03 0.03 0.03 0.04 0.05 0.07 0.11 0.12 0.13 0.13 0.11 0.10
0.01 0.01 0.03 0.03 0.03 0.04 0.06 0.09 0.10 0.09 0.07 0.05 0.04 0.04 0.03 0.03 0.02 0.01 0.01 0.01 0.02 0.02 0.02 0.01 0.01 0.01 0.01 0.01 0.02 0.01 0.01 0.02 0.02 0.03 0.03 0.04 0.05 0.08 0.12 0.11 0.10 0.09 0.08
0.01 0.01 0.01 0.02 0.03 0.04 0.05 0.06 0.07 0.10 0.09 0.07 0.05 0.04 0.03 0.03 0.02 0.02 0.02 0.01 0.02 0.02 0.02 0.02 0.01 0.02 0.01 0.01 0.01 0.01 0.01 0.02 0.02 0.03 0.03 0.03 0.04 0.06 0.10 0.11 0.10 0.10 0.09
0.01 0.01 0.01 0.02 0.02 0.02 0.03 0.04 0.06 0.09 0.08 0.07 0.06 0.05 0.03 0.02 0.02 0.02 0.02 0.02 0.02 0.02 0.02 0.01 0.01 0.01 0.01 0.01 0.00 0.01 0.01 0.01 0.02 0.03 0.03 0.03 0.03 0.04 0.07 0.10 0.10 0.10 0.09
0.01 0.02 0.02 0.03 0.02 0.01 0.01 0.01 0.03 0.07 0.09 0.08 0.07 0.06 0.05 0.03 0.02 0.02 0.01 0.01 0.01 0.01 0.02 0.01 0.01 0.01 0.00 0.00 0.01 0.01 0.01 0.01 0.02 0.03 0.04 0.04 0.04 0.05 0.07 0.09 0.10 0.09 0.08
0.01 0.01 0.01 0.02 0.02 0.01 0.01 0.01 0.01 0.03 0.05 0.06 0.07 0.07 0.06 0.05 0.04 0.03 0.02 0.01 0.01 0.01 0.01 0.02 0.02 0.01 0.01 0.01 0.01 0.02 0.02 0.03 0.03 0.05 0.06 0.05 0.05 0.06 0.07 0.09 0.10 0.09 0.08
0.01 0.01 0.01 0.01 0.01 0.01 0.01 0.01 0.01 0.02 0.03 0.04 0.04 0.05 0.06 0.06 0.05 0.05 0.04 0.03 0.02 0.02 0.02 0.03 0.03 0.02 0.02 0.01 0.02 0.02 0.03 0.04 0.05 0.06 0.07 0.06 0.05 0.05 0.05 0.07 0.08 0.10 0.08
0.01 0.01 0.01 0.01 0.01 0.01 0.01 0.01 0.02 0.02 0.02 0.03 0.04 0.04 0.04 0.05 0.06 0.06 0.06 0.06 0.05 0.05 0.05 0.04 0.04 0.03 0.03 0.03 0.03 0.03 0.03 0.04 0.05 0.05 0.05 0.04 0.04 0.04 0.04 0.04 0.07 0.08 0.09
0.01 0.01 0.01 0.01 0.01 0.02 0.02 0.02 0.03 0.02 0.02 0.03 0.04 0.04 0.04 0.04 0.04 0.05 0.06 0.06 0.06 0.06 0.06 0.05 0.04 0.04 0.03 0.03 0.03 0.03 0.04 0.04 0.04 0.04 0.04 0.04 0.03 0.05 0.06 0.05 0.06 0.08 0.08
0.01 0.01 0.01 0.01 0.01 0.02 0.02 0.03 0.03 0.03 0.03 0.03 0.04 0.04 0.05 0.04 0.04 0.03 0.03 0.03 0.04 0.04 0.04 0.04 0.04 0.03 0.02 0.02 0.03 0.03 0.03 0.04 0.05 0.04 0.05 0.05 0.04 0.04 0.04 0.06 0.07 0.07 0.08
0.00 0.01 0.01 0.01 0.01 0.02 0.02 0.03 0.03 0.03 0.03 0.03 0.03 0.03 0.04 0.04 0.04 0.04 0.04 0.03 0.02 0.02 0.02 0.02 0.02 0.02 0.02 0.02 0.02 0.04 0.04 0.04 0.04 0.04 0.06 0.07 0.06 0.04 0.04 0.04 0.06 0.08 0.09
0.00 0.00 0.00 0.00 0.01 0.01 0.01 0.02 0.02 0.01 0.02 0.02 0.02 0.02 0.02 0.02 0.02 0.04 0.05 0.04 0.04 0.03 0.02 0.02 0.02 0.02 0.02 0.02 0.03 0.04 0.04 0.04 0.04 0.04 0.04 0.06 0.06 0.05 0.04 0.04 0.05 0.05 0.07
0.00 0.00 0.00 0.00 0.00 0.00 0.01 0.01 0.01 0.01 0.01 0.01 0.01 0.01 0.02 0.02 0.03 0.03 0.02 0.03 0.03 0.03 0.03 0.03 0.03 0.03 0.03 0.03 0.03 0.03 0.04 0.04 0.04 0.04 0.04 0.04 0.05 0.05 0.06 0.05 0.04 0.04 0.05
MSLP
1015.38 1015.34 1015.31 1015.35 1015.50 1015.80 1016.25 1016.81 1017.43 1018.04 1018.59 1019.01 1019.29 1019.44 1019.50 1019.50 1019.51 1019.57 1019.71 1019.91 1020.18 1020.47 1020.76 1021.01 1021.22 1021.38 1021.50 1021.60 1021.69 1021.78 1021.86 1021.94 1021.99 1022.01 1022.00 1021.96 1021.89 1021.82 1021.75 1021.69 1021.64 1021.61 1021.57
1015.36 1015.23 1015.12 1015.11 1015.24 1015.54 1016.02 1016.63 1017.31 1018.00 1018.61 1019.09 1019.41 1019.58 1019.63 1019.61 1019.59 1019.60 1019.70 1019.88 1020.13 1020.42 1020.72 1021.00 1021.24 1021.43 1021.58 1021.70 1021.80 1021.90 1021.99 1022.08 1022.16 1022.20 1022.23 1022.21 1022.18 1022.12 1022.06 1022.00 1021.93 1021.88 1021.83
1015.25 1015.07 1014.92 1014.89 1015.01 1015.32 1015.82 1016.46 1017.19 1017.93 1018.59 1019.12 1019.48 1019.68 1019.74 1019.72 1019.68 1019.67 1019.73 1019.88 1020.10 1020.38 1020.68 1020.96 1021.21 1021.42 1021.58 1021.72 1021.84 1021.94 1022.05 1022.16 1022.25 1022.33 1022.39 1022.41 1022.41 1022.38 1022.34 1022.28 1022.22 1022.15 1022.09
1015.08 1014.87 1014.72 1014.69 1014.83 1015.15 1015.66 1016.32 1017.06 1017.81 1018.50 1019.06 1019.45 1019.68 1019.78 1019.78 1019.74 1019.73 1019.77 1019.89 1020.08 1020.33 1020.60 1020.88 1021.13 1021.34 1021.52 1021.67 1021.80 1021.93 1022.05 1022.18 1022.30 1022.41 1022.50 1022.56 1022.60 1022.61 1022.59 1022.55 1022.50 1022.44 1022.38
1014.84 1014.65 1014.53 1014.53 1014.69 1015.03 1015.53 1016.17 1016.89 1017.63 1018.30 1018.86 1019.28 1019.55 1019.68 1019.72 1019.72 1019.72 1019.77 1019.87 1020.04 1020.25 1020.50 1020.75 1020.99 1021.21 1021.40 1021.57 1021.72 1021.87 1022.02 1022.17 1022.32 1022.46 1022.58 1022.68 1022.76 1022.80 1022.82 1022.81 1022.78 1022.73 1022.68
1014.58 1014.42 1014.34 1014.39 1014.57 1014.91 1015.39 1015.99 1016.65 1017.33 1017.96 1018.50 1018.93 1019.23 1019.41 1019.51 1019.56 1019.61 1019.67 1019.78 1019.93 1020.12 1020.34 1020.57 1020.80 1021.03 1021.23 1021.43 1021.61 1021.79 1021.97 1022.15 1022.32 1022.49 1022.64 1022.77 1022.88 1022.95 1023.01 1023.03 1023.04 1023.02 1022.99
1014.32 1014.19 1014.16 1014.24 1014.44 1014.77 1015.21 1015.73 1016.31 1016.90 1017.46 1017.97 1018.39 1018.71 1018.95 1019.12 1019.25 1019.35 1019.45 1019.57 1019.72 1019.90 1020.11 1020.33 1020.56 1020.80 1021.03 1021.26 1021.48 1021.70 1021.91 1022.11 1022.30 1022.49 1022.66 1022.81 1022.95 1023.06 1023.15 1023.21 1023.25 1023.27 1023.27
1014.10 1013.98 1013.97 1014.07 1014.27 1014.56 1014.92 1015.35 1015.82 1016.31 1016.79 1017.24 1017.65 1018.00 1018.30 1018.55 1018.75 1018.92 1019.08 1019.24 1019.40 1019.59 1019.79 1020.01 1020.26 1020.52 1020.78 1021.05 1021.32 1021.57 1021.81 1022.04 1022.25 1022.45 1022.64 1022.80 1022.96 1023.10 1023.22 1023.32 1023.40 1023.46 1023.50
1013.93 1013.79 1013.76 1013.84 1014.00 1014.22 1014.50 1014.82 1015.17 1015.54 1015.93 1016.33 1016.73 1017.11 1017.46 1017.78 1018.07 1018.32 1018.55 1018.75 1018.94 1019.14 1019.36 1019.60 1019.87 1020.16 1020.46 1020.78 1021.09 1021.38 1021.66 1021.91 1022.14 1022.35 1022.54 1022.72 1022.89 1023.06 1023.21 1023.35 1023.48 1023.57 1023.65
1013.82 1013.61 1013.53 1013.54 1013.62 1013.75 1013.92 1014.12 1014.35 1014.61 1014.92 1015.26 1015.64 1016.04 1016.45 1016.85 1017.22 1017.55 1017.84 1018.09 1018.33 1018.56 1018.80 1019.07 1019.37 1019.70 1020.05 1020.41 1020.76 1021.10 1021.41 1021.68 1021.92 1022.14 1022.34 1022.54 1022.73 1022.93 1023.12 1023.30 1023.47 1023.61 1023.73
1013.75 1013.44 1013.26 1013.17 1013.14 1013.16 1013.20 1013.28 1013.39 1013.55 1013.77 1014.07 1014.43 1014.85 1015.30 1015.76 1016.20 1016.60 1016.96 1017.27 1017.56 1017.82 1018.10 1018.40 1018.74 1019.11 1019.51 1019.91 1020.31 1020.68 1021.02 1021.32 1021.58 1021.82 1022.04 1022.26 1022.49 1022.72 1022.96 1023.19 1023.40 1023.59 1023.75
1013.72 1013.29 1012.97 1012.75 1012.59 1012.47 1012.39 1012.33 1012.32 1012.39 1012.54 1012.78 1013.12 1013.55 1014.03 1014.54 1015.04 1015.50 1015.92 1016.29 1016.62 1016.94 1017.27 1017.61 1017.99 1018.40 1018.84 1019.29 1019.72 1020.12 1020.49 1020.81 1021.10 1021.36 1021.62 1021.88 1022.16 1022.44 1022.73 1023.02 1023.28 1023.52 1023.72
1013.72 1013.15 1012.69 1012.32 1012.02 1011.76 1011.54 1011.36 1011.24 1011.20 1011.27 1011.46 1011.77 1012.18 1012.67 1013.20 1013.74 1014.26 1014.73 1015.16 1015.56 1015.93 1016.31 1016.71 1017.13 1017.59 1018.07 1018.54 1019.01 1019.44 1019.83 1020.18 1020.50 1020.80 1021.11 1021.42 1021.75 1022.10 1022.46 1022.81 1023.13 1023.42 1023.65
1013.72 1013.04 1012.44 1011.94 1011.49 1011.10 1010.74 1010.44 1010.21 1010.07 1010.05 1010.16 1010.42 1010.79 1011.26 1011.80 1012.36 1012.91 1013.44 1013.92 1014.38 1014.83 1015.27 1015.73 1016.21 1016.71 1017.23 1017.73 1018.22 1018.67 1019.08 1019.46 1019.82 1020.16 1020.52 1020.90 1021.30 1021.72 1022.15 1022.56 1022.94 1023.27 1023.54
1013.75 1012.97 1012.27 1011.65 1011.08 1010.56 1010.09 1009.67 1009.32 1009.07 1008.94 1008.96 1009.13 1009.44 1009.86 1010.37 1010.93 1011.50 1012.07 1012.62 1013.16 1013.68 1014.20 1014.73 1015.27 1015.82 1016.37 1016.90 1017.41 1017.88 1018.31 1018.72 1019.10 1019.50 1019.91 1020.35 1020.81 1021.30 1021.79 1022.26 1022.69 1023.06 1023.37
1013.79 1012.96 1012.21 1011.50 1010.85 1010.23 1009.65 1009.12 1008.64 1008.27 1008.02 1007.92 1007.97 1008.18 1008.52 1008.98 1009.51 1010.09 1010.70 1011.31 1011.92 1012.52 1013.13 1013.75 1014.36 1014.96 1015.56 1016.12 1016.64 1017.12 1017.57 1018.00 1018.41 1018.84 1019.29 1019.78 1020.30 1020.83 1021.37 1021.88 1022.35 1022.76 1023.10
1013.85 1013.04 1012.27 1011.53 1010.82 1010.14 1009.47 1008.83 1008.24 1007.72 1007.33 1007.08 1006.99 1007.06 1007.30 1007.67 1008.15 1008.72 1009.35 1010.01 1010.69 1011.39 1012.09 1012.79 1013.48 1014.16 1014.80 1015.39 1015.94 1016.44 1016.91 1017.34 1017.77 1018.22 1018.70 1019.20 1019.75 1020.31 1020.86 1021.40 1021.89 1022.32 1022.68
1013.94 1013.18 1012.44 1011.72 1010.99 1010.27 1009.53 1008.79 1008.08 1007.43 1006.87 1006.46 1006.20 1006.12 1006.21 1006.48 1006.89 1007.42 1008.05 1008.75 1009.49 1010.27 1011.06 1011.85 1012.63 1013.37 1014.07 1014.71 1015.30 1015.82 1016.30 1016.75 1017.19 1017.64 1018.11 1018.62 1019.15 1019.70 1020.25 1020.79 1021.28 1021.72 1022.10
1014.02 1013.36 1012.69 1012.01 1011.30 1010.56 1009.77 1008.95 1008.12 1007.33 1006.62 1006.03 1005.59 1005.34 1005.29 1005.42 1005.73 1006.21 1006.81 1007.52 1008.30 1009.14 1010.00 1010.88 1011.73 1012.55 1013.31 1014.01 1014.64 1015.20 1015.71 1016.18 1016.62 1017.07 1017.52 1018.00 1018.50 1019.01 1019.53 1020.03 1020.50 1020.93 1021.33
1014.08 1013.53 1012.96 1012.34 1011.67 1010.92 1010.10 1009.20 1008.28 1007.36 1006.49 1005.73 1005.13 1004.71 1004.50 1004.49 1004.69 1005.08 1005.63 1006.31 1007.09 1007.96 1008.86 1009.79 1010.71 1011.60 1012.43 1013.20 1013.89 1014.51 1015.06 1015.56 1016.01 1016.45 1016.89 1017.32 1017.77 1018.23 1018.68 1019.13 1019.57 1019.99 1020.40
1014.08 1013.64 1013.17 1012.62 1011.99 1011.25 1010.40 1009.45 1008.44 1007.41 1006.42 1005.52 1004.77 1004.19 1003.83 1003.68 1003.75 1004.03 1004.49 1005.10 1005.85 1006.69 1007.60 1008.55 1009.51 1010.45 1011.35 1012.19 1012.96 1013.65 1014.26 1014.81 1015.30 1015.75 1016.16 1016.57 1016.96 1017.36 1017.75 1018.14 1018.54 1018.94 1019.34
1013.98 1013.65 1013.25 1012.77 1012.17 1011.44 1010.58 1009.59 1008.52 1007.42 1006.33 1005.33 1004.46 1003.76 1003.27 1002.99 1002.92 1003.07 1003.41 1003.91 1004.56 1005.34 1006.20 1007.12 1008.09 1009.06 1010.01 1010.92 1011.78 1012.56 1013.26 1013.88 1014.42 1014.90 1015.33 1015.71 1016.07 1016.41 1016.75 1017.09 1017.45 1017.82 1018.23
1013.76 1013.51 1013.17 1012.73 1012.16 1011.43 1010.55 1009.55 1008.45 1007.32 1006.19 1005.13 1004.20 1003.42 1002.82 1002.43 1002.23 1002.24 1002.43 1002.79 1003.30 1003.95 1004.71 1005.56 1006.48 1007.45 1008.43 1009.40 1010.34 1011.21 1012.01 1012.73 1013.36 1013.90 1014.36 1014.76 1015.11 1015.43 1015.73 1016.03 1016.36 1016.71 1017.11
1013.42 1013.21 1012.91 1012.48 1011.91 1011.19 1010.31 1009.31 1008.22 1007.09 1005.98 1004.92 1003.98 1003.17 1002.52 1002.04 1001.73 1001.60 1001.62 1001.81 1002.14 1002.61 1003.22 1003.95 1004.78 1005.70 1006.68 1007.69 1008.69 1009.65 1010.56 1011.39 1012.12 1012.74 1013.28 1013.72 1014.09 1014.42 1014.71 1015.00 1015.31 1015.65 1016.05
1012.96 1012.77 1012.47 1012.04 1011.47 1010.74 1009.88 1008.91 1007.86 1006.79 1005.74 1004.75 1003.84 1003.06 1002.40 1001.87 1001.47 1001.20 1001.07 1001.06 1001.18 1001.45 1001.87 1002.43 1003.13 1003.96 1004.90 1005.90 1006.94 1007.97 1008.97 1009.90 1010.74 1011.47 1012.09 1012.61 1013.04 1013.40 1013.72 1014.02 1014.33 1014.68 1015.06
1012.43 1012.23 1011.91 1011.47 1010.88 1010.16 1009.32 1008.40 1007.43 1006.46 1005.51 1004.63 1003.82 1003.11 1002.48 1001.94 1001.48 1001.10 1000.80 1000.60 1000.52 1000.57 1000.77 1001.14 1001.68 1002.38 1003.23 1004.20 1005.23 1006.30 1007.36 1008.37 1009.30 1010.13 1010.84 1011.45 1011.95 1012.38 1012.75 1013.09 1013.42 1013.76 1014.15
Thickness
5631 5631 5630 5630 5631 5631 5632 5632 5633 5634 5635 5637 5638 5640 5641 5642 5644 5645 5646 5648 5649 5650 5651 5652 5653 5653 5653 5653 5653 5652 5652 5651 5650 5649 5648 5647 5646 5645 5644 5643 5642 5642 5641
5622 5622 5622 5622 5622 5623 5624 5624 5625 5626 5627 5629 5630 5632 5633 5634 5636 5637 5639 5640 5641 5642 5643 5645 5646 5646 5646 5646 5646 5646 5645 5644 5644 5643 5642 5641 5640 5639 5638 5637 5637 5636 5636
5613 5613 5613 5613 5614 5615 5615 5616 5616 5618 5619 5620 5622 5623 5625 5626 5627 5629 5631 5632 5633 5634 5635 5637 5638 5638 5639 5639 5638 5638 5638 5638 5637 5636 5635 5634 5633 5632 5632 5631 5631 5630 5630
5604 5604 5604 5605 5606 5606 5606 5606 5607 5609 5610 5611 5613 5615 5617 5618 5620 5621 5622 5624 5624 5625 5626 5627 5629 5629 5629 5630 5630 5630 5630 5630 5630 5629 5628 5627 5626 5625 5625 5625 5624 5624 5624
5595 5595 5595 5595 5596 5597 5597 5598 5598 5599 5600 5602 5604 5607 5608 5610 5612 5613 5613 5615 5615 5616 5617 5618 5618 5619 5619 5620 5621 5621 5622 5622 5621 5621 5620 5619 5618 5618 5618 5618 5617 5617 5617
5587 5586 5585 5586 5587 5587 5587 5588 5588 5589 5591 5593 5596 5598 5600 5602 5604 5604 5604 5605 5606 5607 5607 5608 5608 5608 5609 5610 5611 5612 5613 5613 5613 5612 5612 5611 5611 5611 5611 5611 5610 5610 5610
5577 5577 5576 5576 5576 5577 5577 5578 5579 5580 5581 5582 5584 5587 5591 5594 5595 5596 5596 5596 5597 5597 5597 5598 5598 5598 5598 5599 5600 5601 5602 5603 5603 5603 5603 5603 5603 5603 5603 5604 5603 5603 5603
5568 5567 5566 5566 5566 5566 5567 5568 5569 5570 5571 5571 5572 5574 5578 5582 5585 5587 5587 5587 5587 5587 5587 5587 5587 5587 5588 5588 5589 5590 5591 5592 5593 5594 5594 5594 5595 5595 5596 5596 5596 5596 5596
5557 5557 5557 5557 5556 5556 5557 5558 5559 5560 5560 5560 5561 5562 5564 5569 5571 5576 5576 5577 5576 5576 5576 5576 5576 5577 5577 5578 5578 5579 5580 5581 5582 5583 5584 5584 5585 5586 5587 5588 5588 5588 5588
5547 5547 5547 5547 5547 5547 5548 5548 5549 5550 5550 5550 5550 5551 5551 5553 5554 5560 5565 5565 5565 5565 5565 5565 5565 5566 5566 5567 5567 5568 5569 5570 5571 5572 5573 5574 5575 5576 5577 5578 5579 5579 5579
5537 5537 5537 5537 5537 5538 5539 5539 5539 5540 5540 5540 5540 5540 5540 5540 5541 5542 5549 5552 5553 5554 5555 5555 5555 5555 5555 5556 5557 5558 5558 5559 5560 5561 5562 5563 5564 5566 5567 5568 5569 5569 5569
5527 5527 5527 5528 5528 5528 5528 5529 5529 5529 5530 5530 5529 5529 5529 5529 5530 5530 5533 5537 5539 5543 5544 5544 5543 5544 5544 5545 5546 5546 5547 5548 5549 5550 5551 5552 5553 5554 5555 5557 5558 5559 5559
5516 5516 5516 5517 5517 5517 5517 5518 5519 5518 5518 5519 5519 5519 5519 5519 5519 5519 5520 5522 5525 5530 5532 5532 5532 5532 5532 5533 5534 5535 5536 5537 5537 5539 5540 5541 5542 5543 5544 5545 5547 5548 5549
5507 5507 5506 5506 5506 5507 5507 5507 5507 5507 5507 5507 5508 5508 5509 5509 5508 5509 5508 5508 5511 5517 5520 5520 5520 5519 5519 5520 5521 5522 5524 5525 5526 5528 5529 5530 5531 5532 5533 5534 5536 5537 5538
5497 5497 5496 5496 5496 5496 5496 5496 5496 5496 5496 5496 5496 5497 5498 5499 5498 5498 5498 5497 5496 5502 5510 5510 5507 5508 5507 5508 5509 5510 5512 5513 5515 5517 5518 5519 5521 5522 5523 5524 5524 5526 5527
5486 5486 5486 5486 5485 5485 5485 5485 5485 5484 5484 5485 5486 5487 5488 5489 5488 5488 5487 5487 5486 5488 5493 5499 5496 5495 5494 5495 5496 5498 5500 5501 5504 5505 5507 5508 5510 5511 5512 5513 5513 5513 5514
5476 5475 5475 5475 5474 5474 5474 5474 5474 5474 5474 5475 5476 5477 5478 5479 5478 5478 5477 5477 5476 5475 5478 5485 5483 5483 5483 5484 5485 5486 5488 5490 5492 5494 5496 5498 5499 5500 5501 5502 5502 5502 5502
5466 5465 5464 5463 5463 5463 5463 5463 5463 5463 5464 5465 5466 5467 5467 5468 5468 5467 5467 5466 5466 5466 5466 5469 5471 5471 5471 5472 5473 5475 5477 5479 5481 5483 5485 5487 5488 5488 5489 5490 5490 5490 5491
5455 5453 5452 5452 5452 5452 5452 5452 5452 5452 5453 5454 5455 5456 5457 5456 5457 5457 5456 5456 5456 5457 5456 5456 5459 5459 5459 5460 5461 5463 5465 5467 5469 5471 5473 5475 5476 5477 5477 5478 5478 5478 5479
5443 5442 5442 5441 5441 5441 5441 5442 5442 5443 5444 5444 5445 5445 5446 5446 5446 5446 5447 5447 5446 5445 5445 5445 5446 5447 5447 5448 5448 5450 5453 5455 5457 5459 5461 5462 5464 5465 5466 5466 5467 5468 5468
5432 5431 5431 5431 5431 5431 5431 5432 5433 5434 5434 5434 5434 5435 5435 5437 5437 5436 5437 5436 5435 5434 5434 5434 5435 5436 5436 5435 5436 5438 5440 5442 5445 5447 5448 5450 5452 5453 5454 5455 5455 5456 5457
5421 5420 5420 5420 5420 5421 5422 5424 5424 5424 5423 5423 5423 5424 5424 5425 5426 5426 5426 5426 5424 5423 5423 5423 5424 5424 5425 5424 5424 5425 5426 5429 5433 5435 5435 5438 5439 5441 5443 5444 5445 5445 5446
5410 5409 5410 5410 5411 5411 5413 5414 5414 5414 5413 5413 5413 5413 5414 5415 5416 5415 5415 5415 5413 5412 5412 5412 5412 5413 5413 5413 5413 5414 5415 5416 5420 5422 5421 5426 5427 5429 5432 5432 5433 5434 5434
5401 5400 5400 5400 5401 5402 5403 5404 5405 5404 5403 5403 5403 5403 5404 5405 5405 5405 5405 5404 5403 5402 5402 5401 5402 5403 5402 5402 5402 5404 5405 5406 5408 5409 5409 5411 5414 5416 5419 5421 5422 5423 5424
5392 5390 5390 5391 5391 5392 5393 5395 5395 5394 5394 5394 5394 5394 5394 5395 5397 5396 5396 5395 5394 5393 5392 5391 5392 5392 5393 5393 5392 5392 5393 5395 5398 5399 5397 5397 5401 5402 5405 5408 5410 5411 5413
5383 5382 5381 5381 5382 5383 5384 5385 5386 5385 5385 5386 5386 5386 5386 5386 5387 5387 5386 5385 5385 5384 5382 5382 5382 5382 5382 5382 5382 5381 5382 5382 5384 5386 5386 5385 5386 5386 5390 5396 5398 5399 5401